Sacramento, CA

1:03 AM PDT on October 19, 2017 (GMT -0700)
Sacramento Executive

Weather History for KSAC - December, 2012

Change the Weather History Date:

Wednesday, December 19, 2012

  Actual Average Record
Temperature  
Mean Temperature 40 °F -  
Max Temperature 50 °F 53 °F 72 °F (1999)
Min Temperature 30 °F 38 °F 25 °F (1965)
Degree Days  
Heating Degree Days 25    
Cooling Degree Days 0    
Moisture  
Dew Point 27 °F    
Average Humidity 61    
Maximum Humidity 85    
Minimum Humidity 36    
Precipitation  
Precipitation 0.00 in 0.11 in 2.87 in (1955)
Month to date precipitation 2.97 1.88  
Year to date precipitation 17.97 17.15  
Since 1 July precipitation 8.11  
Sea Level Pressure  
Sea Level Pressure 30.27 in    
Wind  
Wind Speed 4 mph (SE)    
Max Wind Speed 9 mph    
Max Gust Speed 12 mph    
Visibility 10 miles    
Events      
T = Trace of Precipitation, MM = Missing Value Source: NWS Daily Summary

Daily Weather History Graph

Daily Weather History Graph

Search for Another Location

Airport or City:

Trip Planner

Search our weather history database for the weather conditions in past years. The results will help you decide how hot, cold, wet, or windy it might be!

Date:

Astronomy

Dec. 19, 2012 Rise Set
Actual Time 7:19 AM PST 4:47 PM PST
Civil Twilight 6:49 AM PST 5:17 PM PST
Nautical Twilight 6:15 AM PST 5:50 PM PST
Astronomical Twilight 5:43 AM PST 6:23 PM PST
Moon 11:35 AM PST No Moon Set
Length of Visible Light 10h 28m
Length of Day
9h 28m
Waxing Crescent, 46% of the Moon is Illuminated
Dec 19
Waxing Crescent
Dec 19
First Quarter
Dec 28
Full
Jan 4
Last Quarter
Jan 11
New

Hourly Weather History & Observations

Time (PST) Temp. Windchill Dew Point Humidity Pressure Visibility Wind Dir Wind Speed Gust Speed Precip Events Conditions
12:53 AM 37.9 °F 32.7 °F 27.0 °F 65% 30.18 in 10.0 mi NW 6.9 mph - N/A   Clear
1:53 AM 37.0 °F 31.6 °F 27.0 °F 67% 30.19 in 10.0 mi NW 6.9 mph - N/A   Clear
2:53 AM 35.1 °F 31.0 °F 27.0 °F 72% 30.22 in 10.0 mi NW 4.6 mph - N/A   Clear
3:53 AM 34.0 °F 28.8 °F 27.0 °F 75% 30.22 in 10.0 mi NW 5.8 mph - N/A   Clear
4:53 AM 34.0 °F - 27.0 °F 75% 30.22 in 10.0 mi Calm Calm - N/A   Clear
5:53 AM 30.9 °F 27.5 °F 26.1 °F 82% 30.25 in 10.0 mi NW 3.5 mph - N/A   Clear
6:53 AM 30.9 °F - 26.1 °F 82% 30.27 in 10.0 mi Calm Calm - N/A   Clear
7:53 AM 30.9 °F - 26.1 °F 82% 30.29 in 10.0 mi Calm Calm - N/A   Clear
8:53 AM 37.0 °F 33.3 °F 30.0 °F 76% 30.31 in 10.0 mi ESE 4.6 mph - N/A   Clear
9:53 AM 39.9 °F 37.8 °F 28.0 °F 63% 30.33 in 10.0 mi ESE 3.5 mph - N/A   Clear
10:53 AM 42.1 °F 39.2 °F 28.9 °F 60% 30.34 in 10.0 mi South 4.6 mph - N/A   Clear
11:53 AM 45.0 °F - 27.0 °F 49% 30.32 in 10.0 mi Calm Calm - N/A   Clear
12:53 PM 48.0 °F - 26.1 °F 42% 30.31 in 10.0 mi Calm Calm - N/A   Clear
1:53 PM 48.9 °F - 26.1 °F 41% 30.29 in 10.0 mi Calm Calm - N/A   Clear
2:53 PM 48.9 °F - 23.0 °F 36% 30.29 in 10.0 mi Calm Calm - N/A   Clear
3:53 PM 48.9 °F - 24.1 °F 38% 30.27 in 10.0 mi SE 4.6 mph - N/A   Clear
4:53 PM 46.0 °F 44.8 °F 24.1 °F 42% 30.26 in 10.0 mi SSE 3.5 mph - N/A   Clear
5:53 PM 42.1 °F 40.2 °F 27.0 °F 55% 30.26 in 10.0 mi SE 3.5 mph - N/A   Clear
6:53 PM 39.9 °F 37.8 °F 28.0 °F 63% 30.26 in 10.0 mi SE 3.5 mph - N/A   Clear
7:53 PM 41.0 °F 38.0 °F 27.0 °F 57% 30.25 in 10.0 mi SE 4.6 mph - N/A   Clear
8:53 PM 39.9 °F 37.8 °F 28.0 °F 63% 30.26 in 10.0 mi ESE 3.5 mph - N/A   Clear
9:53 PM 37.9 °F 35.5 °F 30.0 °F 73% 30.27 in 10.0 mi East 3.5 mph - N/A   Clear
10:53 PM 36.0 °F - 30.0 °F 79% 30.27 in 10.0 mi Calm Calm - N/A   Clear
11:53 PM 36.0 °F 33.3 °F 30.0 °F 79% 30.26 in 10.0 mi ESE 3.5 mph - N/A   Clear